Wind_Speed
19 20 20 18 16 16 16 15 14 12 11 12 12 12 12 12 12 12 12 12 12 13 12 11 10 11 10 10 11 12 12 12 12 13 13 14 15 17 20 24 25 23 22
22 23 21 20 19 18 17 15 13 13 13 14 14 14 15 15 15 16 16 16 15 16 15 15 14 14 12 11 12 13 14 13 13 14 15 15 16 17 18 21 26 27 26
23 23 22 21 20 19 18 16 15 15 16 17 17 17 17 17 18 18 19 19 18 17 16 17 17 15 13 14 13 13 14 14 14 15 16 16 17 18 19 20 22 26 28
24 24 23 21 19 18 17 17 17 17 17 18 19 19 19 19 20 20 21 21 20 19 18 18 18 17 14 14 15 15 14 15 14 15 16 17 18 18 19 21 22 25 26
25 24 21 18 17 18 18 19 19 19 19 20 20 21 22 22 22 22 22 22 22 21 20 20 19 17 15 14 14 15 14 15 15 15 16 16 18 18 18 19 21 24 25
24 22 20 20 21 22 23 23 23 23 23 23 23 23 23 23 23 23 23 23 23 22 21 21 20 19 17 15 14 15 14 14 14 15 15 15 16 18 18 17 17 19 23
22 22 23 24 25 25 25 25 25 25 26 25 25 25 25 24 24 24 24 24 24 24 24 23 22 21 19 16 15 15 15 14 15 16 15 15 15 16 19 18 16 15 18
24 24 25 25 26 26 26 26 27 27 28 28 27 27 27 27 27 27 27 27 27 27 26 24 23 22 20 18 17 18 17 16 17 17 16 15 14 15 18 21 20 17 16
25 26 27 27 28 28 29 29 30 30 29 29 29 28 29 28 28 28 28 28 27 26 25 25 23 22 21 20 20 20 19 20 20 19 18 18 17 16 17 20 24 23 20
27 27 28 29 29 30 30 30 30 30 29 29 29 30 30 29 29 28 28 27 26 25 25 24 24 23 23 23 23 22 22 22 22 22 21 21 21 20 19 19 22 25 24
28 28 28 28 29 29 28 28 28 28 28 28 30 31 31 31 30 29 28 28 28 27 26 26 27 27 27 27 28 28 27 26 25 25 25 25 25 24 23 23 22 22 24
26 26 25 25 26 27 27 27 26 26 26 27 28 29 29 30 31 31 30 30 30 30 30 31 32 32 32 33 34 34 32 32 31 31 30 30 30 28 27 26 26 25 25
24 25 25 26 27 28 28 29 29 30 30 30 31 32 32 33 34 35 35 35 35 36 36 37 37 38 39 39 39 39 37 38 37 36 35 34 35 33 31 30 31 30 30
26 27 28 28 29 29 30 30 31 33 35 36 37 38 39 40 41 41 42 42 43 43 43 43 43 44 44 45 45 45 44 43 43 41 40 38 38 37 35 33 33 32 32
26 26 27 28 29 29 30 31 32 32 33 34 36 37 38 40 42 43 44 44 45 45 46 46 47 48 48 48 49 49 49 48 48 46 44 41 40 40 38 35 35 35 34
26 28 30 32 34 35 36 36 36 36 36 37 37 37 38 39 40 41 43 44 44 44 44 45 46 48 50 50 51 51 51 50 50 49 46 44 43 42 40 39 38 37 38
30 32 34 35 38 40 41 42 42 43 43 43 43 43 44 43 43 44 46 47 47 46 45 46 47 49 51 51 52 52 52 51 51 50 49 47 45 44 43 42 42 42 42
34 37 39 40 42 44 45 46 47 48 48 49 49 50 50 50 50 50 50 51 50 49 49 50 49 50 51 51 53 54 54 54 53 52 51 49 48 46 45 45 45 45 44
41 43 45 47 48 49 50 51 51 52 52 52 53 53 53 53 53 55 55 54 52 51 52 52 51 51 51 51 53 54 55 56 56 54 52 51 50 48 47 47 47 47 46
46 47 49 50 52 53 55 56 57 56 56 56 55 56 55 55 55 56 57 57 55 54 52 51 51 51 51 52 54 55 56 57 58 56 55 53 53 50 48 48 48 48 48
48 49 50 52 54 56 57 58 59 59 59 59 58 58 57 56 56 56 55 55 54 52 50 49 51 53 52 53 54 55 56 58 59 57 57 56 55 52 50 50 49 49 50
51 52 52 53 54 56 57 59 60 62 62 61 60 59 58 57 57 56 54 53 51 50 49 50 52 54 54 54 54 55 57 59 60 58 57 57 56 54 52 50 50 50 50
52 52 53 53 55 56 58 60 62 64 64 64 62 61 60 58 57 56 53 51 49 50 50 50 52 53 52 52 52 53 54 56 56 56 54 55 54 51 51 51 51 51 51
56 56 56 56 56 56 56 58 61 63 63 63 63 62 61 59 56 54 53 52 52 51 51 52 53 53 54 53 51 50 50 51 52 52 50 51 52 53 52 53 54 54 55
64 65 65 66 64 63 61 60 61 63 64 64 63 62 61 58 56 54 54 55 52 51 51 52 53 55 56 55 52 52 51 50 50 50 52 53 52 54 56 56 56 56 57
74 74 75 76 74 72 68 63 63 64 64 63 61 60 58 56 54 53 53 54 52 52 52 52 53 56 58 57 54 51 51 52 51 52 53 51 50 53 54 55 55 57 60
Wind_Direction
268 273 277 279 278 280 281 282 284 284 278 277 281 276 270 270 276 282 278 279 286 288 289 293 297 301 300 288 276 275 277 277 274 265 258 255 254 252 249 245 242 242 245
269 273 275 275 276 278 277 275 276 277 272 270 271 270 268 269 272 278 279 278 283 285 285 287 293 297 294 282 272 272 273 272 271 266 258 255 254 253 252 248 244 243 244
272 275 276 276 275 274 272 276 279 278 275 270 268 265 265 267 270 272 274 274 278 281 284 288 294 298 293 283 273 268 270 273 268 264 262 258 256 255 255 252 248 245 244
276 277 276 275 272 270 272 277 279 279 279 277 274 270 267 266 267 268 270 273 277 281 286 289 294 299 295 280 267 263 265 270 268 262 261 260 260 258 255 254 253 249 244
276 276 274 270 270 272 276 278 279 279 278 278 276 273 270 268 267 268 270 274 278 281 284 287 291 294 290 279 270 266 264 263 265 265 263 263 262 261 258 256 256 251 247
278 274 270 273 276 277 278 280 281 282 281 279 277 275 273 270 268 268 270 274 278 280 283 286 286 286 284 277 267 264 265 265 268 271 272 271 269 261 256 256 258 253 249
274 273 275 276 277 278 279 279 279 279 278 277 276 275 274 273 271 270 271 273 276 279 280 279 278 278 277 271 262 261 264 269 269 270 273 273 271 264 254 254 256 257 250
272 274 275 276 276 277 277 277 276 276 276 274 272 272 273 273 273 273 273 273 274 274 272 269 267 267 267 266 261 260 264 269 271 272 274 274 270 268 259 254 253 255 254
275 277 278 278 278 277 277 276 275 272 270 269 269 268 268 268 269 270 270 270 270 269 267 265 262 261 263 263 262 263 264 266 270 275 277 275 272 268 264 258 254 254 254
280 280 279 278 277 276 275 274 273 271 269 267 266 265 265 265 265 266 266 267 267 265 263 261 260 261 264 264 263 261 261 264 267 271 275 276 274 269 264 259 257 256 256
275 274 273 273 275 275 274 271 269 268 267 267 267 267 266 265 263 262 263 263 263 263 262 261 262 261 262 263 264 264 263 262 262 266 270 274 274 271 266 261 257 258 258
270 271 271 272 273 274 274 273 271 269 268 268 268 268 268 267 264 263 262 263 263 263 264 265 266 265 264 264 265 265 265 265 263 264 266 270 271 270 268 264 259 257 257
270 272 274 274 273 273 273 274 274 274 272 269 267 265 264 263 261 261 262 263 263 264 266 267 268 267 266 266 266 266 266 266 265 264 264 266 267 268 266 265 263 258 255
280 282 283 284 284 285 284 282 280 278 276 274 272 270 268 266 264 264 264 265 266 266 268 269 268 267 266 266 266 266 267 267 267 265 265 263 263 264 265 262 260 258 253
287 290 291 291 291 292 292 290 288 286 283 279 276 274 272 270 268 267 267 267 268 269 270 270 271 270 268 266 265 265 266 266 267 266 265 262 261 262 263 261 257 255 251
290 292 292 293 293 292 291 290 289 288 286 285 283 282 280 278 277 275 273 271 271 271 272 273 273 272 271 269 267 265 264 264 266 266 265 262 260 260 260 260 257 253 250
292 292 290 290 290 289 289 288 288 288 288 287 286 285 284 283 282 280 279 277 275 274 272 271 270 269 269 268 267 266 264 262 261 262 262 261 259 257 256 255 254 252 249
291 289 286 286 286 285 284 283 283 284 284 284 284 284 284 284 283 282 279 277 277 277 275 273 271 269 267 265 264 263 262 261 260 259 259 258 257 255 253 253 252 251 249
288 286 284 283 283 283 282 280 280 280 279 279 280 280 279 279 279 279 278 277 277 277 276 274 271 269 267 265 262 260 259 258 258 256 254 254 254 254 252 250 249 249 248
288 286 285 284 283 282 281 281 280 279 277 277 277 277 277 276 276 277 277 277 277 276 274 271 269 267 266 264 262 259 256 256 256 255 253 252 252 251 249 248 248 248 248
288 286 284 283 282 282 282 281 281 280 279 278 277 276 275 275 274 274 274 274 274 274 271 267 265 263 262 261 261 260 256 254 253 252 252 252 251 251 250 248 247 247 247
287 285 283 281 280 279 279 278 279 279 279 279 278 277 277 276 275 274 273 272 272 271 267 261 259 259 259 260 259 258 256 254 253 251 250 251 251 250 249 248 246 246 247
291 290 287 283 281 279 278 277 277 277 276 276 275 275 275 275 275 275 274 271 268 267 263 259 257 257 257 256 255 254 253 252 252 251 249 248 249 248 248 247 247 246 249
299 297 293 290 287 284 282 279 278 277 276 275 274 273 272 272 272 272 271 268 267 265 260 257 256 256 255 251 251 251 252 251 251 251 247 247 249 249 251 253 253 253 255
301 299 296 294 292 290 285 280 277 276 275 275 273 271 270 270 269 268 266 266 266 263 260 258 255 254 253 249 248 251 252 250 249 249 248 249 250 252 254 255 256 257 258
298 296 294 292 290 288 285 280 275 273 271 270 268 267 268 267 266 266 265 263 262 261 260 259 256 254 252 251 249 249 249 251 250 250 251 253 255 257 258 258 259 262 263
Height
5867 5867 5866 5865 5864 5863 5861 5860 5859 5858 5858 5857 5857 5857 5856 5856 5855 5855 5855 5855 5855 5854 5853 5853 5852 5852 5851 5850 5849 5848 5848 5847 5846 5846 5846 5846 5845 5845 5846 5847 5848 5850 5851
5865 5864 5863 5861 5860 5859 5858 5857 5856 5856 5856 5855 5855 5854 5854 5853 5853 5852 5853 5853 5852 5852 5851 5851 5850 5850 5849 5848 5847 5847 5846 5844 5843 5844 5844 5844 5844 5843 5843 5843 5845 5847 5848
5862 5860 5859 5857 5856 5855 5855 5854 5853 5853 5852 5852 5851 5851 5850 5849 5849 5849 5849 5850 5850 5849 5848 5847 5847 5846 5846 5844 5844 5844 5843 5841 5840 5841 5840 5841 5841 5841 5840 5840 5841 5842 5844
5857 5856 5855 5854 5852 5852 5851 5850 5850 5849 5848 5848 5847 5847 5846 5846 5845 5845 5845 5845 5845 5845 5844 5844 5843 5843 5842 5842 5841 5841 5840 5838 5838 5838 5837 5837 5838 5837 5837 5837 5837 5838 5839
5852 5851 5850 5850 5849 5848 5848 5847 5846 5845 5844 5843 5843 5843 5842 5842 5842 5842 5841 5841 5841 5841 5840 5839 5839 5839 5839 5839 5838 5838 5836 5835 5835 5835 5834 5834 5834 5834 5834 5834 5834 5834 5835
5849 5847 5846 5846 5845 5844 5843 5842 5841 5841 5840 5839 5839 5838 5838 5837 5837 5837 5837 5836 5836 5836 5836 5835 5835 5834 5835 5835 5835 5834 5834 5833 5832 5832 5831 5831 5831 5831 5831 5831 5831 5831 5831
5844 5843 5842 5841 5840 5839 5838 5837 5836 5835 5834 5834 5834 5833 5833 5832 5832 5832 5832 5832 5831 5831 5831 5831 5831 5831 5831 5831 5831 5831 5831 5830 5830 5829 5828 5828 5828 5828 5827 5828 5829 5828 5828
5839 5838 5837 5836 5835 5834 5833 5832 5831 5830 5830 5829 5828 5828 5828 5828 5827 5827 5827 5826 5826 5826 5825 5825 5825 5825 5826 5827 5827 5827 5827 5827 5826 5826 5826 5825 5824 5824 5824 5824 5825 5826 5826
5833 5832 5831 5830 5829 5828 5827 5826 5825 5824 5824 5824 5823 5822 5822 5822 5821 5821 5821 5820 5820 5820 5819 5820 5820 5820 5820 5821 5822 5822 5823 5822 5822 5822 5822 5822 5822 5822 5821 5821 5822 5823 5824
5827 5826 5825 5824 5822 5821 5821 5820 5819 5818 5818 5817 5817 5817 5817 5817 5816 5816 5815 5815 5815 5814 5814 5814 5815 5815 5815 5816 5817 5817 5818 5817 5817 5817 5818 5818 5819 5819 5818 5818 5818 5819 5820
5821 5820 5819 5818 5816 5816 5815 5814 5813 5812 5812 5811 5811 5811 5811 5811 5811 5810 5810 5809 5809 5809 5809 5809 5809 5809 5809 5809 5809 5810 5811 5811 5811 5812 5812 5813 5813 5814 5814 5814 5814 5813 5814
5816 5815 5814 5813 5812 5811 5810 5808 5808 5807 5806 5806 5805 5805 5804 5804 5804 5804 5803 5803 5803 5803 5803 5803 5803 5803 5803 5803 5802 5802 5803 5804 5804 5805 5806 5806 5807 5808 5808 5808 5809 5809 5810
5810 5809 5809 5808 5807 5806 5805 5804 5803 5801 5801 5800 5799 5798 5798 5798 5797 5797 5796 5796 5796 5796 5795 5795 5795 5795 5796 5796 5796 5795 5795 5795 5796 5797 5798 5800 5800 5801 5801 5802 5802 5802 5803
5806 5805 5804 5803 5801 5800 5799 5797 5796 5795 5794 5793 5792 5792 5791 5791 5790 5789 5789 5788 5787 5787 5787 5787 5787 5786 5786 5786 5787 5787 5787 5786 5786 5787 5789 5791 5791 5792 5793 5794 5795 5795 5796
5801 5799 5797 5796 5794 5793 5792 5790 5789 5788 5786 5785 5784 5783 5782 5781 5780 5780 5778 5778 5777 5776 5776 5776 5776 5776 5776 5776 5776 5777 5778 5778 5777 5778 5779 5781 5782 5783 5784 5785 5787 5787 5788
5795 5793 5792 5789 5787 5785 5784 5782 5781 5779 5777 5776 5775 5774 5772 5771 5770 5769 5769 5768 5767 5766 5766 5765 5765 5764 5764 5764 5765 5766 5767 5768 5768 5768 5769 5770 5772 5773 5774 5775 5777 5779 5780
5788 5786 5784 5781 5779 5777 5775 5773 5771 5768 5766 5765 5764 5762 5761 5760 5758 5757 5756 5755 5755 5754 5754 5754 5753 5753 5752 5753 5753 5753 5754 5755 5757 5757 5757 5758 5760 5762 5763 5764 5766 5768 5770
5779 5777 5774 5771 5768 5766 5764 5762 5760 5757 5755 5753 5751 5750 5748 5747 5746 5744 5743 5742 5741 5740 5740 5740 5740 5740 5740 5741 5741 5741 5742 5742 5743 5744 5745 5746 5747 5749 5751 5752 5754 5756 5758
5770 5767 5763 5760 5757 5754 5751 5749 5747 5745 5742 5740 5738 5736 5735 5734 5732 5730 5728 5727 5726 5726 5725 5725 5726 5726 5727 5728 5728 5727 5728 5728 5728 5730 5732 5733 5735 5736 5738 5739 5741 5744 5746
5758 5754 5750 5747 5743 5740 5737 5734 5731 5729 5727 5725 5723 5722 5720 5719 5718 5716 5714 5713 5711 5711 5710 5710 5711 5711 5712 5713 5714 5714 5714 5714 5714 5717 5719 5720 5722 5724 5725 5727 5729 5731 5734
5744 5740 5736 5733 5728 5724 5721 5718 5715 5712 5710 5708 5706 5705 5703 5702 5701 5699 5698 5697 5696 5695 5694 5694 5695 5695 5696 5698 5700 5701 5701 5701 5701 5703 5705 5707 5709 5711 5713 5714 5717 5719 5721
5729 5725 5721 5717 5712 5708 5704 5701 5698 5695 5693 5691 5690 5688 5686 5684 5683 5682 5681 5679 5679 5678 5678 5679 5679 5680 5682 5683 5685 5686 5688 5689 5689 5691 5693 5694 5696 5699 5701 5703 5705 5706 5708
5713 5709 5704 5700 5696 5693 5689 5686 5682 5680 5677 5674 5673 5671 5669 5667 5666 5665 5664 5663 5663 5663 5663 5664 5665 5666 5667 5668 5670 5672 5674 5676 5678 5679 5680 5682 5684 5686 5688 5690 5692 5694 5696
5694 5691 5686 5683 5679 5675 5671 5668 5665 5662 5659 5657 5656 5654 5653 5651 5650 5649 5648 5648 5648 5648 5649 5649 5651 5652 5653 5655 5657 5659 5660 5663 5665 5668 5668 5669 5671 5673 5674 5676 5679 5682 5684
5676 5671 5666 5662 5659 5655 5651 5649 5646 5642 5639 5637 5636 5636 5635 5634 5633 5633 5632 5631 5632 5632 5633 5633 5635 5638 5640 5642 5643 5646 5647 5648 5650 5653 5655 5656 5658 5660 5661 5662 5664 5667 5669
5655 5650 5645 5641 5638 5633 5630 5628 5626 5622 5620 5619 5618 5618 5618 5617 5616 5616 5617 5617 5617 5617 5617 5617 5618 5620 5624 5627 5629 5631 5633 5634 5635 5639 5641 5643 5644 5645 5647 5648 5649 5652 5654